SCP
0 0 0 0 0 0 0 0 0 0 0 0 0 0 0 0 0 0 0 0 1 1 1 0 0 0 0 0 0 0 0 0 0 0 0 0 0 0 0 0 0 0 0
0 0 0 0 0 0 0 0 0 0 0 0 0 0 0 0 0 0 0 0 1 1 1 1 0 0 0 0 0 0 0 0 0 0 0 0 0 0 0 0 0 0 0
0 0 0 0 0 0 0 0 0 0 0 0 0 0 0 0 0 0 0 0 0 1 1 1 1 0 0 0 0 0 0 0 0 0 0 0 0 0 0 0 0 0 0
0 0 0 0 0 0 0 0 0 0 0 0 0 0 0 0 0 0 0 0 0 0 0 0 0 0 0 0 0 0 0 0 0 0 0 0 0 0 0 0 0 0 0
0 0 0 0 0 0 0 0 0 0 0 0 0 0 0 0 0 0 0 0 0 0 0 0 0 0 0 0 0 0 0 0 0 0 0 0 0 0 0 0 0 0 0
0 0 0 0 0 0 0 0 0 0 0 0 0 0 0 0 0 0 0 0 0 0 0 0 0 0 0 0 0 0 0 0 0 0 0 0 0 0 0 0 0 0 0
0 0 0 0 0 0 0 0 0 0 0 0 0 0 0 0 0 0 0 0 0 0 0 0 0 0 0 0 0 0 0 0 0 0 0 0 0 0 0 0 0 0 0
0 0 0 0 0 0 0 0 0 0 0 0 0 0 0 0 0 0 0 0 0 0 0 0 0 0 0 0 0 0 0 0 0 0 0 0 0 0 0 0 0 0 0
0 0 0 0 0 0 0 0 0 0 0 0 0 0 0 0 0 0 0 0 0 0 0 0 0 0 0 0 0 0 0 0 0 0 0 0 0 0 0 0 0 0 0
0 0 0 0 0 0 0 0 0 0 0 0 0 0 0 0 0 0 0 0 0 0 0 0 0 0 0 0 0 0 0 0 0 0 0 0 0 0 0 0 0 0 0
0 0 0 0 0 0 0 0 0 0 0 0 0 0 0 0 0 0 0 0 0 0 0 0 0 0 0 0 0 0 0 0 0 0 0 0 0 0 0 0 0 0 0
0 0 0 0 0 0 0 0 0 0 0 0 0 0 0 0 0 0 0 0 0 0 0 0 0 0 0 0 0 0 0 0 0 0 0 0 0 0 0 0 0 0 0
0 0 0 0 0 0 0 0 0 0 0 0 0 0 0 0 0 0 0 0 0 0 0 0 0 0 0 0 0 0 0 0 0 0 0 0 0 0 0 0 0 0 0
0 0 0 0 0 0 0 0 0 0 0 0 0 0 0 0 0 0 0 0 0 0 0 0 0 0 0 0 0 0 0 0 0 0 0 0 0 0 0 0 0 0 0
0 0 0 0 0 0 0 0 0 0 0 0 0 0 0 0 0 0 0 0 0 0 0 0 0 0 0 0 0 0 0 0 0 0 0 0 0 0 0 0 0 0 0
0 0 0 0 0 0 0 0 0 0 0 0 0 0 0 0 0 0 0 0 0 0 0 0 0 0 0 0 0 0 0 0 0 0 0 0 0 0 0 0 0 0 0
0 0 0 0 0 0 0 0 0 0 0 0 0 0 0 0 0 0 0 0 0 0 0 0 0 0 0 0 0 0 0 0 0 0 0 0 0 0 0 0 0 0 0
0 0 0 0 0 0 0 0 0 0 0 0 0 0 0 0 0 0 0 0 0 0 0 0 0 0 0 0 0 0 0 0 0 0 0 0 0 0 0 0 0 0 0
0 0 0 0 0 0 0 0 0 0 0 0 0 0 0 0 0 0 0 0 0 0 0 0 0 0 0 0 0 0 0 0 0 0 0 0 0 0 0 0 0 0 0
0 0 0 0 0 0 0 0 0 0 0 0 0 0 0 0 0 0 0 0 0 0 0 0 0 0 0 0 0 0 0 0 0 0 0 0 0 0 0 0 0 0 0
0 0 0 0 0 0 0 0 0 0 0 0 0 0 0 0 0 0 0 0 0 0 0 0 0 0 0 0 0 0 0 0 0 0 0 0 0 0 0 0 0 0 0
0 0 0 0 0 0 0 0 0 0 0 0 0 0 0 0 0 0 0 0 0 0 0 0 0 0 0 0 0 0 0 0 0 0 0 0 0 0 0 0 0 0 0
0 0 0 0 0 0 0 0 0 0 0 0 0 0 0 0 0 0 0 0 0 0 0 0 0 0 0 0 0 0 0 0 0 0 0 0 0 0 0 0 0 0 0
0 0 0 0 0 0 0 0 0 0 0 0 0 0 0 0 0 0 0 0 0 0 0 0 0 0 0 0 0 0 0 0 0 0 0 0 0 0 0 0 0 0 0
0 0 0 0 0 0 0 0 0 0 0 0 0 0 0 0 0 0 0 0 0 0 0 0 0 0 0 0 0 0 0 0 0 0 0 0 0 0 0 0 0 0 0
0 0 0 0 0 0 0 0 0 0 0 0 0 0 0 0 0 0 0 0 0 0 0 0 0 0 0 0 0 0 0 0 0 0 0 0 0 0 0 0 0 0 0
Wind_Speed
3 2 2 1 2 1 1 1 0 0 0 0 1 2 3 3 3 3 2 5 6 6 7 7 7 7 6 6 6 6 6 6 6 7 7 7 7 7 7 7 7 7 7
4 3 2 2 2 2 2 1 1 1 1 1 2 2 2 3 3 3 2 3 5 6 6 6 7 7 7 7 7 7 7 7 7 7 7 7 7 7 7 7 7 7 7
4 4 3 2 2 2 2 2 2 2 2 2 3 3 3 3 3 3 3 2 2 5 6 6 6 6 6 6 7 7 8 7 7 7 7 7 7 7 6 6 6 6 7
6 4 3 3 3 3 3 2 2 2 2 3 3 3 3 3 3 3 3 3 2 2 3 6 6 5 5 6 6 6 7 7 7 6 6 6 6 6 6 6 6 6 6
6 5 3 3 3 3 2 3 2 2 2 3 3 3 3 3 2 2 3 3 3 2 2 3 4 3 4 4 5 5 6 6 5 5 5 5 4 5 4 3 3 3 4
5 5 4 4 4 3 2 2 3 3 2 2 3 4 4 4 3 3 2 3 2 2 2 2 2 0 1 3 4 5 5 5 5 6 6 5 5 5 4 3 1 2 3
5 5 4 4 4 3 4 4 3 3 3 2 3 3 3 5 5 4 3 3 3 3 3 3 1 1 1 3 3 5 6 7 8 8 8 7 7 7 6 5 5 5 6
5 5 5 5 5 4 4 3 3 3 2 2 2 2 1 2 3 4 4 3 3 3 3 3 3 2 2 2 3 5 7 8 9 8 8 7 8 8 8 8 8 9 10
4 4 5 5 5 4 4 3 3 4 3 2 2 2 3 3 1 2 4 4 4 4 3 3 5 5 4 3 3 4 5 6 7 8 8 8 8 8 10 10 12 13 14
5 5 6 6 6 5 5 4 3 3 4 3 2 3 3 2 3 2 1 3 4 5 5 4 5 6 6 4 5 7 8 8 7 7 8 8 9 10 11 13 15 16 17
7 7 7 7 7 6 6 6 5 5 3 3 2 2 3 3 3 2 2 1 2 3 4 4 4 5 6 6 5 7 10 9 9 9 10 10 12 13 14 16 18 19 21
7 8 8 8 8 7 7 7 7 8 6 6 5 3 2 2 2 2 2 1 1 1 3 3 3 4 5 5 7 11 11 11 12 12 13 13 15 16 18 19 21 22 23
6 7 7 8 7 7 8 8 8 8 7 8 7 5 5 3 2 2 2 1 1 1 1 1 1 2 3 4 5 11 11 13 14 14 15 16 17 18 20 21 22 23 24
7 8 8 9 9 8 9 8 8 7 7 8 8 6 5 4 3 2 2 1 0 1 2 2 2 2 3 4 6 11 8 14 15 16 16 17 18 19 20 21 22 23 23
8 9 9 10 9 9 9 8 7 7 7 7 6 6 4 3 3 3 2 1 2 1 2 3 2 3 4 5 8 8 8 13 16 17 17 18 18 19 20 21 22 22 23
9 10 10 10 10 9 9 8 7 6 7 5 4 5 4 2 2 2 1 1 1 2 3 2 3 5 7 8 11 9 9 16 16 17 17 18 19 19 20 21 22 22 22
10 10 10 10 10 9 8 7 7 6 6 5 4 4 3 2 1 1 1 1 1 2 3 4 3 5 7 9 10 9 9 9 9 16 18 19 19 20 20 21 21 21 21
10 10 10 10 9 9 7 7 7 6 5 4 3 3 2 1 1 0 1 1 2 3 4 5 5 5 7 9 10 11 9 8 9 15 18 19 20 20 19 19 20 19 19
10 10 10 9 8 7 7 6 6 5 5 4 3 3 2 2 2 2 2 2 2 3 3 4 6 5 6 7 8 8 10 9 10 11 15 17 18 18 18 18 18 17 16
9 8 8 7 7 6 6 5 5 5 5 4 4 3 3 3 3 3 3 3 3 3 4 5 7 7 7 7 6 7 9 9 9 10 11 12 15 18 19 19 18 18 16
8 6 6 6 5 4 4 4 4 5 5 5 5 5 5 7 6 4 4 4 3 4 5 6 8 7 8 8 7 6 9 10 11 8 7 9 10 10 11 13 15 16 16
5 5 4 4 3 3 4 6 5 4 4 5 6 7 7 6 9 9 10 9 7 7 8 7 8 9 11 10 9 8 8 9 7 5 7 10 9 10 9 9 12 16 16
4 3 3 3 2 2 3 4 5 3 3 4 5 6 6 7 8 6 9 11 11 13 13 9 10 11 11 10 9 10 9 9 9 9 8 9 9 10 9 10 14 15 15
2 2 1 2 2 3 3 3 4 3 4 5 6 6 6 8 7 8 8 9 10 11 11 8 8 10 10 10 9 8 9 9 9 8 6 7 8 9 10 9 11 13 14
1 1 1 2 2 4 5 5 4 3 4 7 7 7 7 8 10 11 9 10 11 11 10 9 10 12 13 14 10 5 5 6 8 8 4 4 5 8 9 7 8 12 13
1 2 2 2 2 3 5 6 4 2 5 6 7 8 9 9 11 12 9 8 10 10 10 11 9 8 8 7 7 4 4 5 6 6 3 4 5 5 5 4 7 8 8
Wind_Direction
181 192 199 202 212 191 185 203 233 266 43 161 188 189 184 181 170 160 168 174 165 162 163 163 159 155 149 141 132 124 119 116 112 105 99 93 87 81 74 65 57 50 40
179 188 199 199 204 192 185 175 162 136 93 98 90 106 125 135 138 138 135 151 152 155 160 163 156 148 144 140 133 127 119 113 109 104 100 95 91 86 78 69 60 50 40
181 184 189 193 190 164 148 127 112 97 93 86 81 81 85 94 115 119 114 106 127 141 143 143 141 142 143 142 136 126 120 117 114 111 107 103 98 92 83 70 58 49 39
178 176 178 186 168 145 140 138 121 95 80 81 74 63 66 73 81 98 96 92 88 95 123 131 133 141 147 149 145 140 139 137 132 129 124 120 114 106 95 81 68 52 37
175 168 169 165 147 137 137 141 110 111 108 99 87 61 48 54 54 84 90 82 67 65 69 111 128 150 170 172 171 172 172 168 164 161 159 157 148 135 123 105 78 41 15
163 154 150 146 140 133 124 119 110 81 87 100 91 63 39 38 36 37 55 62 55 55 58 61 66 12 226 221 215 213 217 216 214 206 203 203 194 187 183 187 226 294 317
149 146 147 138 137 139 140 132 112 96 70 54 85 60 31 37 43 30 32 47 50 48 50 49 40 27 332 300 283 260 255 250 247 240 235 229 221 215 220 232 251 272 289
142 145 145 140 134 128 124 125 124 118 84 41 116 127 119 26 26 30 36 47 45 44 44 42 35 26 359 343 327 302 284 280 271 264 259 251 239 236 241 252 266 276 283
94 111 122 122 118 119 125 116 117 127 127 72 41 142 159 183 116 31 31 39 41 43 37 39 45 37 29 24 7 352 341 332 302 286 281 277 265 258 262 266 274 281 285
80 89 97 100 97 95 99 93 85 102 122 126 75 46 64 111 142 131 37 24 40 47 44 46 47 44 38 30 24 23 17 8 350 327 310 299 288 279 276 276 278 282 284
66 72 82 87 86 83 83 80 79 76 80 103 108 97 75 61 61 122 136 24 35 37 41 43 50 46 35 26 12 14 9 1 353 339 326 313 302 293 287 284 283 283 284
72 68 74 77 79 81 80 79 78 77 77 79 76 71 86 87 75 84 109 87 19 18 24 36 48 46 34 17 4 358 351 343 334 325 315 305 298 293 290 288 287 287 286
80 75 78 80 80 81 79 79 79 76 76 80 78 73 67 65 76 86 94 88 350 334 337 3 21 27 19 357 337 333 330 324 318 311 305 299 295 291 288 287 286 286 286
86 83 81 80 78 79 80 79 79 79 79 81 80 76 71 58 57 76 108 128 17 318 306 290 305 299 332 326 310 314 310 310 306 300 295 292 289 287 286 286 285 284 284
88 82 80 79 75 74 75 78 78 76 79 79 83 83 79 63 58 61 83 122 156 243 280 297 292 287 311 308 300 302 299 299 298 295 293 290 287 285 284 284 283 282 281
80 81 78 77 74 70 71 75 75 71 76 70 76 81 80 76 69 68 84 107 153 190 243 268 270 289 301 303 302 304 298 298 296 294 291 289 287 286 284 284 283 282 281
78 78 77 74 72 69 68 73 71 66 70 62 57 72 73 88 95 101 129 167 186 194 240 270 269 284 292 296 304 303 297 292 289 290 293 292 290 289 287 286 286 285 284
78 78 79 77 74 71 67 69 67 59 59 53 39 43 35 28 13 295 229 230 227 216 232 274 289 292 288 294 295 298 298 298 293 293 292 292 292 292 291 289 288 286 284
78 77 78 78 75 70 65 62 62 54 47 37 22 15 353 342 316 287 266 257 253 246 228 259 289 292 291 293 297 295 297 294 295 295 294 292 294 295 295 292 289 286 281
84 82 82 81 77 71 64 58 57 48 34 21 8 354 331 309 287 282 279 273 264 268 268 275 289 295 292 293 289 299 307 307 305 303 297 298 296 297 295 292 290 289 284
87 88 88 82 74 70 62 59 49 43 28 14 4 353 336 334 337 325 310 288 271 277 289 293 295 296 298 302 302 302 303 307 303 296 303 305 302 297 296 294 293 291 287
81 81 78 77 65 60 58 61 63 40 23 10 355 345 334 338 339 334 327 319 302 292 292 290 291 292 295 297 298 301 303 306 307 305 305 305 304 300 299 295 290 289 287
75 73 64 58 41 4 23 39 45 40 9 352 341 335 331 326 330 321 321 319 309 298 288 280 279 282 289 293 298 300 299 302 298 301 302 298 304 302 303 300 296 294 294
68 50 28 6 344 332 343 356 9 11 345 331 325 317 311 311 315 323 320 312 305 299 293 283 269 276 281 286 284 286 292 294 290 289 283 288 301 306 308 305 298 295 296
40 2 342 336 324 323 340 345 353 339 325 321 317 313 308 304 306 316 318 310 307 305 303 291 281 281 282 283 283 283 291 301 307 309 299 274 291 305 304 298 302 300 300
24 8 22 11 353 342 357 5 2 333 321 321 319 314 312 308 307 312 311 303 301 305 313 317 316 314 308 303 298 271 275 292 303 304 297 295 293 308 300 293 308 313 314